Location: Borojevi?i
(45.0486°N, 16.2297°E)
Time: 05:26:05
(UTC+00:00)

Cosmos 1354 Rocket - Pass Details

Date: 08 August 2020
Orbit: 765 x 783 km, 74.0° (Epoch: 19 September)

Event Time Altitude Azimuth Distance (km) Brightness Sun altitude
Exits shadow 23:07:09 59° 54° (NE) 907 4.4 -29.1°
Drops below altitude 10° 23:11:35 10° 25° (NNE) 2,348 7.3 -29.1°
Sets 23:13:59 0° 24° (NNE) 3,280 8.3 -29.1°
